Regional Weather Roundup
Issued by NWS

Home | Current Version | Previous Version | Text Only | Print | Product List | Glossary Off
Versions: 1 2 3 4 5 6 7 8 9 10 11 12 13 14 15 16 17 18 19 20 21 22 23 24 25 26 27 28 29 30 31 32 33 34 35 36 37 38 39 40 41 42 43 44 45 46 47 48 49 50

000
ASUS43 KOAX 270802
RWRNE

WEATHER ROUNDUP FOR NEBRASKA
NATIONAL WEATHER SERVICE OMAHA NE
300 AM CDT THU APR 27 2017

NOTES: SATELLITE DATA IS BEING USED TO AUGMENT CLOUD COVER ABOVE
       12000 FEET.
       "FAIR" INDICATES FEW OR NO CLOUDS BELOW 12,000 FEET WITH NO
       SIGNIFICANT WEATHER AND/OR OBSTRUCTIONS TO VISIBILITY.

  * THESE STATIONS DO NOT REPORT WEATHER SUCH AS RAIN...SNOW OR FOG.

NEZ001>004-019>022-054>056-270900-
NEBRASKA PANHANDLE

CITY           SKY/WX    TMP DP  RH WIND       PRES   REMARKS
SCOTTSBLUFF    CLOUDY    40  37  89 E9        29.62F WCI  34
ALLIANCE       CLEAR     30  27  88 SE6       29.64F WCI  24
CHADRON        CLEAR     29  26  89 CALM      29.66F
KIMBALL        PTCLDY    37  37  97 S7        29.64F WCI  32
SIDNEY         CLEAR     38  35  89 S8        29.64F WCI  32
$$

NEZ057>060-069>072-079>082-270900-
SOUTHWEST NEBRASKA

CITY           SKY/WX    TMP DP  RH WIND       PRES   REMARKS
NORTH PLATTE   CLOUDY    36  32  85 CALM      29.72S
IMPERIAL       CLOUDY    41  32  70 E5        29.69F
LEXINGTON      PTCLDY    32  29  87 SW3       29.73S
MCCOOK         CLOUDY    34  29  82 E6        29.71F WCI  29
OGALLALA       CLOUDY    41  33  73 E6        29.68F
$$

NEZ005>010-023>029-035>040-094-270900-
NORTH CENTRAL NEBRASKA

CITY           SKY/WX    TMP DP  RH WIND       PRES   REMARKS
VALENTINE      CLEAR     25  21  85 S3        29.71S
AINSWORTH      CLEAR     30  28  93 NW6       29.69F WCI  24
BROKEN BOW     CLEAR     29  25  85 N8        29.69F WCI  21
O`NEILL        CLEAR     28  25  91 W7        29.69F WCI  20
ORD            CLEAR     30  26  85 NW8       29.69F WCI  22
THEDFORD       CLEAR     27  25  93 CALM      29.69F
$$

NEZ041-046>049-061>064-073>077-083>087-270900-
SOUTH CENTRAL NEBRASKA

CITY           SKY/WX    TMP DP  RH WIND       PRES   REMARKS
GRAND ISLAND   CLEAR     30  27  88 NW9       29.71S WCI  22
AURORA         CLEAR     28  25  91 W6        29.70S WCI  21
HASTINGS       CLEAR     28  24  85 W7        29.71F WCI  21
HEBRON         CLEAR     29  27  90 W7        29.71F WCI  22
HOLDREGE       CLEAR     28  25  91 W7        29.72F WCI  20
KEARNEY *      CLEAR     34  25  69 W6        29.71F WCI  29
YORK           CLEAR     28  27  93 W9        29.70S WCI  20
$$

NEZ011>018-030>034-042>045-270900-
NORTHEAST NEBRASKA

CITY           SKY/WX    TMP DP  RH WIND       PRES   REMARKS
NORFOLK        MOCLDY    33  28  81 W9        29.67F WCI  25
ALBION         PTCLDY    28  25  87 NW3       29.69F
BLAIR          CLOUDY    38  31  77 NW8G17    29.64F WCI  32
FREMONT        CLOUDY    38  32  78 NW9       29.67F WCI  32
TEKAMAH        CLOUDY    37  27  67 NW17      29.65F WCI  27
WAYNE          CLOUDY    34  32  91 NW8       29.67F WCI  27
$$

NEZ050>053-065>068-078-088>093-270900-
SOUTHEAST NEBRASKA

CITY           SKY/WX    TMP DP  RH WIND       PRES   REMARKS
LINCOLN        CLOUDY    40  31  70 NW7       29.69F
OMAHA EPPLEY   CLOUDY    39  30  70 NW8       29.65F WCI  33
BEATRICE       CLOUDY    40  32  74 W8        29.68F WCI  34
FALLS CITY     MOCLDY    42  31  64 W13       29.65F
NEBRASKA CITY  CLOUDY    40  29  64 NW13      29.66S WCI  33
$$

NEZ044-045-051>053-067-270900-
OMAHA AREA

CITY           SKY/WX    TMP DP  RH WIND       PRES   REMARKS
OMAHA EPPLEY   CLOUDY    39  30  70 NW8       29.65F WCI  33
BLAIR          CLOUDY    38  31  77 NW8G17    29.64F WCI  32
FREMONT        CLOUDY    38  32  78 NW9       29.67F WCI  32
MILLARD        CLOUDY    41  33  72 NW10      29.66S
OFFUTT AFB     CLOUDY    40  30  68 NW12      29.65F WCI  33
WAHOO          CLOUDY    39  31  73 NW8       29.66F WCI  34
$$




USA.gov is the U.S. government's official web portal to all federal, state and local government web resources and services.